• In Belarus
  • List of Countries
  • For 7 days
  • Water Temperature
  • Weather Map
  • Weather Widgets
  • user-avatar
    Login

    Hourly Weather Mingachevir

    Today, 20 August, Tuesday

    Time Temperature Precipitation Wind Pressure Humidity
    00:00 +26°C° 0 mm 2 mps 754 mmHg 36%
    01:00 +25°C° 0 mm 2 mps 754 mmHg 38%
    02:00 +24°C° 0 mm 2 mps 754 mmHg 40%
    03:00 +24°C° 0 mm 1 mps 754 mmHg 42%
    04:00 +24°C° 0 mm 1 mps 754 mmHg 42%
    05:00 +25°C° 0 mm 1 mps 755 mmHg 41%
    06:00 +23°C° 0 mm 0 mps 755 mmHg 41%
    07:00 +28°C° 0 mm 1 mps 755 mmHg 34%
    08:00 +31°C° 0 mm 1 mps 755 mmHg 27%
    09:00 +34°C° 0 mm 1 mps 755 mmHg 20%
    10:00 +37°C° 0 mm 2 mps 754 mmHg 17%
    11:00 +40°C° 0 mm 4 mps 754 mmHg 14%
    12:00 +42°C° 0 mm 5 mps 754 mmHg 11%
    13:00 +42°C° 0 mm 5 mps 753 mmHg 11%
    14:00 +43°C° 0 mm 5 mps 753 mmHg 10%
    15:00 +42°C° 0 mm 5 mps 753 mmHg 10%
    16:00 +41°C° 0 mm 4 mps 753 mmHg 11%
    17:00 +40°C° 0 mm 4 mps 753 mmHg 11%
    18:00 +38°C° 0 mm 3 mps 753 mmHg 12%
    19:00 +35°C° 0 mm 3 mps 753 mmHg 17%
    20:00 +33°C° 0 mm 4 mps 754 mmHg 21%
    21:00 +29°C° 0 mm 4 mps 754 mmHg 26%
    22:00 +28°C° 0 mm 4 mps 754 mmHg 31%
    23:00 +26°C° 0 mm 3 mps 754 mmHg 37%

    Tomorrow, 21 August, Wednesday

    Time Temperature Precipitation Wind Pressure Humidity
    00:00 +25°C° 0 mm 2 mps 753 mmHg 42%
    01:00 +24°C° 0 mm 2 mps 753 mmHg 45%
    02:00 +24°C° 0 mm 1 mps 754 mmHg 49%
    03:00 +23°C° 0 mm 1 mps 754 mmHg 52%
    04:00 +23°C° 0 mm 1 mps 754 mmHg 51%
    05:00 +24°C° 0 mm 1 mps 754 mmHg 50%
    06:00 +22°C° 0 mm 0 mps 754 mmHg 49%
    07:00 +27°C° 0 mm 1 mps 754 mmHg 41%
    08:00 +30°C° 0 mm 1 mps 754 mmHg 34%
    09:00 +32°C° 0 mm 1 mps 753 mmHg 27%
    10:00 +35°C° 0 mm 2 mps 753 mmHg 23%
    11:00 +37°C° 0 mm 3 mps 752 mmHg 19%
    12:00 +40°C° 0 mm 4 mps 752 mmHg 15%
    13:00 +41°C° 0 mm 4 mps 751 mmHg 14%
    14:00 +42°C° 0 mm 4 mps 751 mmHg 13%
    15:00 +42°C° 0 mm 4 mps 751 mmHg 12%
    16:00 +41°C° 0 mm 4 mps 750 mmHg 13%
    17:00 +39°C° 0 mm 3 mps 750 mmHg 14%
    18:00 +38°C° 0 mm 3 mps 750 mmHg 15%
    19:00 +35°C° 0 mm 4 mps 750 mmHg 18%
    20:00 +33°C° 0 mm 4 mps 751 mmHg 21%
    21:00 +30°C° 0 mm 4 mps 751 mmHg 24%
    22:00 +28°C° 0 mm 4 mps 751 mmHg 28%
    23:00 +27°C° 0 mm 3 mps 751 mmHg 32%

    Day after tomorrow, 22 August, Thursday

    Time Temperature Precipitation Wind Pressure Humidity
    00:00 +26°C° 0 mm 3 mps 751 mmHg 35%
    01:00 +25°C° 0 mm 2 mps 751 mmHg 38%
    02:00 +24°C° 0 mm 2 mps 751 mmHg 40%
    03:00 +24°C° 0 mm 2 mps 751 mmHg 42%
    04:00 +24°C° 0 mm 1 mps 751 mmHg 41%
    05:00 +24°C° 0 mm 1 mps 751 mmHg 41%
    06:00 +24°C° 0 mm 1 mps 751 mmHg 41%
    07:00 +27°C° 0 mm 1 mps 751 mmHg 35%
    08:00 +30°C° 0 mm 2 mps 751 mmHg 30%
    09:00 +34°C° 0 mm 2 mps 751 mmHg 24%
    10:00 +36°C° 0 mm 3 mps 750 mmHg 20%
    11:00 +38°C° 0 mm 4 mps 750 mmHg 17%
    12:00 +40°C° 0 mm 4 mps 749 mmHg 13%
    13:00 +41°C° 0 mm 5 mps 749 mmHg 12%
    14:00 +42°C° 0 mm 5 mps 748 mmHg 11%
    15:00 +43°C° 0 mm 5 mps 748 mmHg 10%
    16:00 +42°C° 0 mm 5 mps 748 mmHg 11%
    17:00 +40°C° 0 mm 5 mps 748 mmHg 12%
    18:00 +39°C° 0 mm 5 mps 748 mmHg 13%
    19:00 +36°C° 0 mm 5 mps 748 mmHg 16%
    20:00 +33°C° 0 mm 5 mps 749 mmHg 19%
    21:00 +29°C° 0 mm 4 mps 749 mmHg 21%
    22:00 +28°C° 0 mm 4 mps 750 mmHg 23%
    23:00 +28°C° 0 mm 3 mps 750 mmHg 25%

    23 August, Friday

    Time Temperature Precipitation Wind Pressure Humidity
    00:00 +27°C° 0 mm 3 mps 750 mmHg 28%
    01:00 +26°C° 0 mm 3 mps 750 mmHg 30%
    02:00 +25°C° 0 mm 2 mps 750 mmHg 32%
    03:00 +25°C° 0 mm 2 mps 750 mmHg 34%
    04:00 +25°C° 0 mm 2 mps 750 mmHg 34%
    05:00 +25°C° 0 mm 1 mps 750 mmHg 33%
    06:00 +26°C° 0 mm 1 mps 750 mmHg 33%
    07:00 +28°C° 0 mm 1 mps 750 mmHg 29%
    08:00 +31°C° 0 mm 1 mps 750 mmHg 25%
    09:00 +35°C° 0 mm 2 mps 750 mmHg 21%
    10:00 +37°C° 0 mm 3 mps 750 mmHg 19%
    11:00 +40°C° 0 mm 4 mps 750 mmHg 18%
    12:00 +42°C° 0 mm 6 mps 749 mmHg 16%
    13:00 +42°C° 0 mm 6 mps 749 mmHg 15%
    14:00 +44°C° 0 mm 7 mps 748 mmHg 15%
    15:00 +44°C° 0 mm 7 mps 748 mmHg 14%
    16:00 +42°C° 0 mm 6 mps 748 mmHg 15%
    17:00 +41°C° 0 mm 6 mps 748 mmHg 16%
    18:00 +40°C° 0 mm 5 mps 748 mmHg 17%
    19:00 +36°C° 0 mm 4 mps 749 mmHg 20%
    20:00 +34°C° 0 mm 4 mps 749 mmHg 23%
    21:00 +32°C° 0 mm 4 mps 750 mmHg 26%
    22:00 +29°C° 0 mm 3 mps 750 mmHg 31%
    23:00 +28°C° 0 mm 3 mps 750 mmHg 37%

    24 August, Saturday

    Time Temperature Precipitation Wind Pressure Humidity
    00:00 +27°C° 0 mm 3 mps 750 mmHg 43%
    01:00 +26°C° 0 mm 3 mps 750 mmHg 44%
    02:00 +26°C° 0 mm 2 mps 749 mmHg 45%
    03:00 +26°C° 0 mm 2 mps 749 mmHg 47%
    04:00 +26°C° 0 mm 1 mps 750 mmHg 48%
    05:00 +26°C° 0 mm 1 mps 750 mmHg 49%
    06:00 +26°C° 0 mm 1 mps 750 mmHg 51%
    07:00 +28°C° 0 mm 1 mps 750 mmHg 44%
    08:00 +31°C° 0 mm 1 mps 750 mmHg 37%
    09:00 +35°C° 0 mm 2 mps 750 mmHg 31%
    10:00 +36°C° 0 mm 3 mps 750 mmHg 27%
    11:00 +38°C° 0 mm 4 mps 750 mmHg 23%
    12:00 +41°C° 0 mm 6 mps 750 mmHg 20%
    13:00 +42°C° 0 mm 6 mps 749 mmHg 18%
    14:00 +44°C° 0 mm 7 mps 749 mmHg 17%
    15:00 +44°C° 0 mm 7 mps 749 mmHg 16%
    16:00 +43°C° 0 mm 7 mps 749 mmHg 17%
    17:00 +41°C° 0 mm 7 mps 749 mmHg 17%
    18:00 +40°C° 0 mm 7 mps 749 mmHg 17%
    19:00 +36°C° 0 mm 6 mps 749 mmHg 23%
    20:00 +34°C° 0 mm 5 mps 750 mmHg 28%
    21:00 +30°C° 0 mm 4 mps 751 mmHg 34%
    22:00 +29°C° 0 mm 4 mps 751 mmHg 37%
    23:00 +28°C° 0 mm 3 mps 751 mmHg 40%

    25 August, Sunday

    Time Temperature Precipitation Wind Pressure Humidity
    00:00 +27°C° 0 mm 3 mps 751 mmHg 43%
    01:00 +26°C° 0 mm 3 mps 751 mmHg 44%
    02:00 +25°C° 0 mm 2 mps 751 mmHg 45%
    03:00 +25°C° 0 mm 2 mps 751 mmHg 46%
    04:00 +25°C° 0 mm 1 mps 751 mmHg 46%
    05:00 +25°C° 0 mm 1 mps 751 mmHg 46%
    06:00 +23°C° 0 mm 0 mps 751 mmHg 46%
    07:00 +27°C° 0 mm 1 mps 751 mmHg 39%
    08:00 +30°C° 0 mm 1 mps 751 mmHg 32%
    09:00 +33°C° 0 mm 1 mps 751 mmHg 25%
    10:00 +35°C° 0 mm 2 mps 751 mmHg 22%
    11:00 +37°C° 0 mm 2 mps 750 mmHg 18%
    12:00 +39°C° 0 mm 3 mps 750 mmHg 14%
    13:00 +39°C° 0 mm 3 mps 750 mmHg 13%
    14:00 +40°C° 0 mm 3 mps 749 mmHg 13%
    15:00 +42°C° 0 mm 3 mps 749 mmHg 13%
    16:00 +40°C° 0 mm 3 mps 749 mmHg 14%
    17:00 +39°C° 0 mm 3 mps 749 mmHg 15%
    18:00 +38°C° 0 mm 3 mps 749 mmHg 16%
    19:00 +35°C° 0 mm 3 mps 750 mmHg 19%
    20:00 +31°C° 0 mm 3 mps 750 mmHg 23%
    21:00 +28°C° 0 mm 3 mps 751 mmHg 27%
    22:00 +27°C° 0.1 mm 3 mps 751 mmHg 31%
    23:00 +27°C° 0.1 mm 3 mps 751 mmHg 36%
    Show more